Creek Data

    Home     View Charts     View Raw Data     Messages

ID Distance Battery Voltage Battery Current Internal Temp Internal Humidity External Temp Solar Input rssi snr Time Stamp Record
66918 11.7 3.81 0 76 46 62 5.1 -72 7 02/21/2026 02:30 PM 49748
66917 11.7 3.81 0 75 45 63 5.1 -72 8 02/21/2026 02:15 PM 49747
66916 11.7 3.98 0 73 45 61 5.1 -72 8 02/21/2026 02:00 PM 49746
66915 11.7 3.81 0 73 44 61 5.1 -72 8 02/21/2026 01:45 PM 49745
66914 11.7 4.08 0 71 45 61 5.1 -72 7 02/21/2026 01:30 PM 49744
66913 11.7 3.81 0 69 45 60 5.1 -73 8 02/21/2026 01:15 PM 49743
66912 11.7 3.81 0 69 45 59 5.1 -73 8 02/21/2026 01:00 PM 49742
66911 11.7 4.08 0 67 45 58 5.1 -72 8 02/21/2026 12:45 PM 49741
66910 11.7 3.81 0 66 45 58 5.1 -72 7 02/21/2026 12:30 PM 49740
66909 11.7 3.86 0 67 44 58 5.1 -72 8 02/21/2026 12:15 PM 49739
66908 11.7 3.81 0 63 46 56 5.1 -71 8 02/21/2026 12:00 PM 49738
66907 11.7 3.81 0 61 46 56 5.1 -71 8 02/21/2026 11:45 AM 49737
66906 11.7 3.81 0 61 46 55 5.1 -73 8 02/21/2026 11:30 AM 49736
66905 11.6 3.91 0 58 47 55 5.1 -71 8 02/21/2026 11:15 AM 49735
66904 11.6 3.81 0 57 46 55 5.1 -73 8 02/21/2026 11:00 AM 49734
66903 11.6 3.81 0 56 46 54 5.1 -72 7 02/21/2026 10:45 AM 49733
66902 11.6 3.81 0 55 46 54 5.1 -73 8 02/21/2026 10:30 AM 49732
66901 11.6 3.81 0 53 46 52 5.1 -71 9 02/21/2026 10:15 AM 49731
66900 11.6 3.81 0 52 45 51 5.1 -73 8 02/21/2026 10:00 AM 49730
66899 11.6 3.81 0 50 46 51 5.1 -71 7 02/21/2026 09:45 AM 49729
66898 11.6 3.81 0 47 46 48 5.1 -73 8 02/21/2026 09:30 AM 49728
66897 11.6 3.81 0 45 46 48 5.1 -73 8 02/21/2026 09:15 AM 49727
66896 11.6 4.08 0 44 46 46 5.1 -72 7 02/21/2026 09:00 AM 49726
66895 11.5 3.81 0 40 47 42 5.1 -72 8 02/21/2026 08:45 AM 49725
66894 11.5 3.81 0 39 48 40 5.1 -72 7 02/21/2026 08:30 AM 49724